Location: Charter Oak
(34.1031°N, 117.8459°W)
Time: 21:47:08
(UTC+00:00)

Daily predictions for brighter satellites

Satellite Brightness Start Highest point End
(mag) Time Altitude Azimuth Time Altitude Azimuth Time Altitude Azimuth
Centaur D AC-28 4.0 12:12:02 37° SSW 12:13:47 41° S 12:41:05 10° SE
SL-16 R/B 4.0 12:26:06 19° SSW 12:26:06 19° SSW 12:27:43 10° S
USA 234 3.4 12:18:20 10° NE 12:23:57 53° NNW 12:23:57 53° NNW
COBE Rocket 4.1 12:22:22 10° SSE 12:27:06 66° E 12:27:06 66° E
Cosmos 1603 4.3 12:27:16 34° N 12:29:28 54° ENE 12:35:00 10° SE
Cosmos 1634 Rocket 4.4 12:29:14 10° S 12:35:19 62° E 12:41:24 10° NNE
ALOS 3.9 12:33:25 10° NNE 12:37:38 33° E 12:41:50 10° SSE
BREEZE-M DEB (TANK) 4.3 12:48:58 22° SSE 12:48:58 22° SSE 12:50:26 10° SSE
COSMO-SKYMED 1 3.6 12:46:36 10° SE 12:50:43 44° ENE 12:54:26 12° N
Cosmos 1484 Rocket 3.0 12:53:51 59° S 12:53:51 59° S 12:56:58 10° SSW
Cosmos 2263 Rocket 2.5 12:56:30 42° NW 12:56:30 42° NW 13:00:56 10° N
Orbus 7S? 4.2 13:01:45 27° NE 13:01:45 27° NE 13:02:58 10° NE
Meteor 1-20 Rocket 4.2 12:56:14 10° SSW 13:02:00 62° W 13:07:47 10° N
Cosmos 676 Rocket 3.9 13:00:25 42° NW 13:02:01 63° WSW 13:07:14 10° S
FALCON 9 R/B 3.5 12:58:37 35° W 13:02:21 88° N 13:28:51 10° E
GEOS 3 Rocket 4.5 12:58:04 10° ESE 13:02:51 44° NE 13:06:41 16° NNW
Cosmos 1703 Rocket 3.4 13:05:08 41° NNW 13:06:32 66° W 13:10:51 10° S
Cosmos 1092 Rocket 3.8 13:01:02 10° N 13:07:09 70° W 13:13:13 10° S
PSLV R/B 3.8 13:04:53 10° N 13:08:57 61° WNW 13:12:59 10° SSW
STARLINK 1027 3.6 13:09:19 42° NE 13:09:23 43° NE 13:12:12 10° ESE
STARLINK 1028 3.5 13:09:32 43° NE 13:09:36 43° NE 13:12:24 10° ESE
Cosmos 1954 Rocket 4.1 13:07:45 35° NW 13:09:45 56° WSW 13:14:55 10° S
STARLINK 1021 3.5 13:09:44 43° NE 13:09:49 43° NE 13:12:37 10° ESE
STARLINK 1019 3.5 13:09:55 43° NNE 13:10:03 44° NE 13:12:54 10° ESE
STARLINK 1012 3.5 13:10:11 43° NE 13:10:17 44° NE 13:13:05 10° ESE
STARLINK 1010 3.5 13:10:24 44° NE 13:10:30 44° NE 13:13:20 10° ESE
BREEZE-M DEB (TANK) 4.3 13:09:37 21° S 13:10:40 31° SE 13:13:13 10° ENE
STARLINK 1026 3.5 13:10:38 44° NE 13:10:44 44° NE 13:13:34 10° ESE
STARLINK 1013 3.5 13:10:50 44° NNE 13:10:57 45° NE 13:13:46 10° ESE
STARLINK 1009 3.4 13:11:03 44° NNE 13:11:12 45° NE 13:14:00 10° ESE
STARLINK 1015 3.4 13:11:15 45° NNE 13:11:24 45° NE 13:14:14 10° ESE
STARLINK 1016 3.4 13:11:28 45° NNE 13:11:37 46° NE 13:14:28 10° ESE
STARLINK 1008 3.4 13:11:41 45° NNE 13:11:51 46° NE 13:14:40 10° ESE
STARLINK 1014 3.4 13:11:54 45° NNE 13:12:05 46° NE 13:14:54 10° ESE
STARLINK 1025 3.4 13:12:08 46° NNE 13:12:18 46° NE 13:15:08 10° ESE
STARLINK 1017 3.4 13:12:21 46° NNE 13:12:34 47° NE 13:15:23 10° ESE
STARLINK 1023 3.3 13:12:34 46° NNE 13:12:45 47° NE 13:15:36 10° ESE
CZ-4B DEB 4.2 13:07:14 10° NNE 13:12:48 89° ESE 13:18:21 10° SSW
STARLINK 1007 3.3 13:12:46 46° NNE 13:12:59 47° NE 13:15:49 10° ESE
STARLINK 1048 3.3 13:13:00 46° NNE 13:13:13 48° NE 13:16:02 10° ESE
STARLINK 1049 3.3 13:13:13 47° NNE 13:13:27 48° NE 13:16:17 10° ESE
STARLINK 1051 3.3 13:13:25 47° NNE 13:13:40 48° NE 13:16:30 10° ESE
STARLINK 1037 3.3 13:13:38 47° NNE 13:13:53 49° NE 13:16:44 10° ESE
STARLINK 1059 3.3 13:13:51 47° NNE 13:14:06 49° NE 13:16:57 10° ESE
STARLINK 1052 3.3 13:13:58 47° NNE 13:14:14 49° NE 13:17:05 10° ESE
STARLINK 1057 3.3 13:14:04 47° NNE 13:14:20 49° NE 13:17:11 10° ESE
STARLINK 1034 3.3 13:14:03 47° NNE 13:14:21 50° NE 13:17:14 10° ESE
STARLINK 1068 3.2 13:14:29 48° NNE 13:14:47 50° NE 13:17:38 10° ESE
STARLINK 1029 3.2 13:14:43 48° NNE 13:15:01 50° NE 13:17:52 10° ESE
STARLINK 1060 3.2 13:14:56 48° NNE 13:15:14 51° NE 13:18:04 10° ESE
STARLINK 1030 3.2 13:15:07 48° NNE 13:15:27 52° NE 13:18:21 10° ESE
STARLINK 1020 3.2 13:15:22 48° NNE 13:15:41 52° NE 13:18:33 10° ESE
USA 238 DEB 4.3 13:09:21 10° SSW 13:15:47 57° ESE 13:22:25 10° NE
USA 238 4.3 13:09:29 10° SSW 13:15:54 56° ESE 13:22:30 10° NE
STARLINK 1040 3.0 13:15:55 54° NNE 13:16:12 58° NE 13:19:05 10° SE
STARLINK 1033 3.2 13:16:01 49° NNE 13:16:21 53° NE 13:19:13 10° ESE
STARLINK 1031 3.1 13:16:14 49° NNE 13:16:35 53° NE 13:19:26 10° ESE
Okean O Rocket 2.1 13:12:21 10° NNE 13:16:44 62° ESE 13:21:05 10° S
STARLINK 1024 3.2 13:16:25 48° N 13:16:48 54° NE 13:19:42 10° ESE
STARLINK 1050 4.0 13:15:40 32° N 13:16:54 47° NE 13:20:22 10° ESE
STARLINK 1035 3.1 13:16:40 49° N 13:17:02 54° NE 13:19:55 10° ESE
STARLINK 1032 3.1 13:16:53 49° N 13:17:15 54° NE 13:20:07 10° ESE
Cosmos 1869 Rocket 3.6 13:13:09 10° SSW 13:17:20 49° W 13:21:33 10° N
STARLINK 1011 3.1 13:17:03 49° N 13:17:28 55° NE 13:20:23 10° ESE
STARLINK 1036 3.1 13:17:19 49° N 13:17:42 55° NE 13:20:35 10° ESE
STARLINK 1047 3.1 13:17:45 49° N 13:18:09 56° NE 13:21:02 10° ESE
STARLINK 1055 3.8 13:18:48 31° NNW 13:20:09 51° NE 13:23:40 10° ESE
FENGYUN 3A 3.6 13:16:19 10° NNE 13:21:44 85° WNW 13:27:05 10° SSW
STARLINK 1022 3.7 13:21:44 30° NNW 13:23:13 55° NE 13:26:45 10° ESE
Cosmos 1461 3.9 13:25:39 28° W 13:26:12 29° WSW 13:30:02 10° S
Helios 1A Rocket 3.1 13:22:14 10° NNE 13:26:16 73° ESE 13:30:15 10° S
STARLINK 1042 3.6 13:24:58 29° NNW 13:26:36 60° NE 13:30:08 10° SE
Cosmos 1844 Rocket 3.2 13:22:10 10° S 13:27:40 63° ESE 13:33:11 10° NNE
Cosmos 1346 Rocket 2.8 13:24:56 10° SSW 13:28:41 52° W 13:32:29 10° N
STARLINK 1056 3.4 13:28:07 27° NNW 13:29:51 66° NE 13:33:25 10° SE
Cosmos 1741 Rocket 4.0 13:27:28 10° NNW 13:32:42 85° ENE 13:37:55 10° SSE
STARLINK 1054 3.3 13:31:19 26° NW 13:33:11 72° NE 13:36:45 10° SE
METEOR-M 4.1 13:28:45 10° N 13:34:02 62° WNW 13:39:17 10° SSW
Hubble Space Telescope 3.5 13:32:31 10° SSW 13:34:47 14° SSE 13:37:04 10° SE
STARLINK 1044 2.5 13:34:03 38° NW 13:35:01 76° SW 13:37:53 10° SE
FALCON 9 DEB 3.1 13:35:25 32° SW 13:35:25 32° SW 13:37:29 10° SSE
Cosmos 1340 3.2 13:32:25 10° SW 13:35:53 35° WNW 13:39:22 10° N
STARLINK 1062 3.3 13:34:23 24° NW 13:36:23 78° NE 13:39:57 10° SE
CZ-4B R/B 3.2 13:32:38 10° NNE 13:38:17 84° WNW 13:43:57 10° SSW
Meteor 1-18 Rocket 4.3 13:33:05 10° NNW 13:38:31 56° W 13:43:58 10° S
SKYMED 2 3.8 13:34:37 10° S 13:38:46 46° W 13:42:58 10° NNW
STARLINK 1053 3.2 13:37:48 23° NW 13:39:57 85° NE 13:43:33 10° SE
FALCON 9 DEB 3.4 13:42:27 25° WSW 13:42:39 25° SW 13:44:39 10° S
STARLINK 1061 3.2 13:40:43 21° NW 13:42:58 89° SW 13:46:34 10° SE
Cosmos 1500 3.3 13:39:54 10° S 13:43:43 78° E 13:47:33 10° N
Cosmos 332 Rocket 3.7 13:38:59 10° SSW 13:43:53 78° WNW 13:48:48 10° NNE
GPS 2-04 Rocket1 3.1 13:40:51 12° WSW 13:44:25 61° SSE 13:48:27 10° E
Cosmos 2180 Rocket 4.4 13:38:23 10° S 13:44:29 75° W 13:50:39 10° N
CZ-4C R/B 4.2 13:41:06 17° WNW 13:44:43 23° WSW 13:50:55 10° SSW
Okean 1-7 4.0 13:43:25 17° NW 13:45:48 26° W 13:49:26 10° SSW
STARLINK 1067 3.2 13:43:58 20° NW 13:46:21 81° SW 13:49:57 10° SE
PSLV R/B 3.8 13:46:47 21° NNW 13:47:46 28° NNE 13:49:57 10° E
Cosmos 1943 3.7 13:44:38 13° NW 13:49:15 39° WSW 13:54:26 10° S
STARLINK 1058 3.2 13:47:04 18° NW 13:49:34 75° SW 13:53:09 10° SE
Cosmos 1850 Rocket 4.1 13:46:07 10° NNW 13:51:23 60° WSW 13:56:36 10° S
Cosmos 1515 3.6 13:47:36 10° N 13:51:26 81° W 13:55:15 10° S
Cosmos 1302 Rocket 4.4 13:47:31 10° S 13:52:45 70° ESE 13:58:01 10° NNE
STARLINK 1043 3.3 13:50:18 17° NW 13:52:57 68° SW 13:56:31 10° SE
Meteor 1-11 Rocket 3.9 13:49:16 10° S 13:54:57 82° E 14:00:49 10° N
STARLINK 1065 3.3 13:53:23 16° NW 13:56:07 63° SW 13:59:41 10° SSE
STARLINK 1063 3.4 13:56:40 15° NW 13:59:33 57° SW 14:03:04 10° SSE
NOAA 6 4.3 13:56:59 10° N 14:01:52 45° WNW 14:06:43 10° SW
STARLINK 1064 3.5 13:59:46 13° WNW 14:02:46 52° SW 14:06:16 10° SSE
Cosmos 44 4.4 13:59:50 10° WSW 14:03:27 21° NW 14:06:57 10° N
SMAP 3.4 13:59:36 10° NNE 14:04:15 72° E 14:08:53 10° S
Cosmos 371 Rocket 3.8 14:00:20 10° SW 14:04:45 36° WNW 14:09:14 10° N
IRS-1C Rocket 4.4 14:00:31 10° NNE 14:05:46 74° ESE 14:11:00 10° S
STARLINK 1041 3.7 14:03:02 12° WNW 14:06:10 48° SW 14:09:38 10° SSE
NOSS 3-2 (C) 3.6 14:01:05 10° SSW 14:06:38 72° ESE 14:12:46 10° NE
STARLINK 1038 3.8 14:06:14 11° WNW 14:09:30 43° SW 14:12:56 10° SSE
Radarsat Rocket 4.3 14:03:36 10° N 14:10:01 71° WNW 14:17:18 10° SSW
ATLAS 3B R/B 4.0 14:03:48 10° S 14:10:11 45° ESE 14:16:27 10° NE
STARLINK 1046 3.9 14:09:28 10° WNW 14:12:50 40° SW 14:16:14 10° SSE
ALOS 3.5 14:11:25 10° NNW 14:14:47 20° WNW 14:18:11 10° WSW
STARLINK 1039 4.1 14:12:48 10° WNW 14:16:10 37° SW 14:19:31 10° SSE
ATLAS CENTAUR R/B 3.9 14:14:36 10° NNE 14:16:57 15° NE 14:19:13 10° E
STARLINK 1045 4.1 14:14:42 10° WNW 14:18:02 35° SW 14:21:22 10° SSE
Cosmos 1908 Rocket 3.7 14:17:00 10° S 14:21:27 88° E 14:25:56 10° N
